EW5401 Weather Reports


Display with metric or nautical units.
time (UTC)temp
F
wind
direction
speed
MPH
gust
MPH
rain 1hr
in
rain 24hr
in
rain mn
in
humidity
%
barometer
mb
20260505000047 65 192 0.0 5.0 0.00 0.00 0.00 43 1006.8
20260504234609 66 216 2.0 6.0 0.00 0.00 0.00 42 1006.6
20260504233042 67 182 4.0 9.0 0.00 0.00 0.00 41 1006.5
20260504231552 67 241 3.0 10.0 0.00 0.00 0.00 39 1006.5
20260504230041 68 238 4.0 9.0 0.00 0.00 0.00 38 1006.2
20260504224541 69 217 3.0 12.0 0.00 0.00 0.00 39 1005.9
20260504223039 70 202 3.0 17.0 0.00 0.00 0.00 37 1006.0
20260504221538 71 210 2.0 9.0 0.00 0.00 0.00 37 1006.0
20260504220036 70 218 5.0 13.0 0.00 0.00 0.00 35 1006.3
20260504214539 70 185 1.0 11.0 0.00 0.00 0.00 38 1006.3
20260504213034 71 251 3.0 10.0 0.00 0.00 0.00 35 1006.3
20260504211531 71 157 3.0 14.0 0.00 0.00 0.00 37 1006.4
20260504210029 70 184 5.0 16.0 0.00 0.00 0.00 36 1006.5
20260504204556 69 229 3.0 11.0 0.00 0.00 0.00 37 1006.6
20260504203028 69 245 3.0 11.0 0.00 0.00 0.00 39 1006.6
20260504201524 69 217 2.0 10.0 0.00 0.00 0.00 39 1006.7
20260504200029 69 230 3.0 9.0 0.00 0.00 0.00 37 1006.9
20260504194522 68 272 2.0 13.0 0.00 0.00 0.00 41 1007.0
20260504193023 69 278 3.0 9.0 0.00 0.00 0.00 39 1007.2
20260504191520 69 206 5.0 13.0 0.00 0.00 0.00 37 1007.0
20260504190020 69 231 0.0 16.0 0.00 0.00 0.00 40 1007.1
20260504184519 69 240 4.0 11.0 0.00 0.00 0.00 40 1007.1
20260504183017 69 225 5.0 14.0 0.00 0.00 0.00 37 1007.3
20260504181515 70 240 5.0 18.0 0.00 0.00 0.00 40 1007.4
20260504180012 69 323 6.0 15.0 0.00 0.00 0.00 37 1007.5
20260504174510 68 301 3.0 12.0 0.00 0.00 0.00 43 1007.9
20260504173008 67 281 2.0 15.0 0.00 0.00 0.00 45 1008.1
20260504171528 68 254 3.0 15.0 0.00 0.00 0.00 41 1008.1
20260504081558 38 330 0.0 0.0 0.00 0.00 0.00 84 1010.7
20260504080151 38 330 0.0 0.0 0.00 0.00 0.00 84 1010.6
20260504044541 39 330 0.0 2.0 0.00 0.00 0.00 82 1010.9
20260504043033 38 330 0.0 0.0 0.00 0.00 0.00 81 1010.9
20260504041532 37 330 0.0 0.0 0.00 0.00 0.00 81 1010.9
20260504040029 37 330 0.0 0.0 0.00 0.00 0.00 81 1010.8
20260504034529 37 330 0.0 0.0 0.00 0.00 0.00 79 1010.7
20260504033027 38 330 0.0 0.0 0.00 0.00 0.00 78 1010.6
20260504031528 38 330 0.0 0.0 0.00 0.00 0.00 76 1010.6
20260504030037 39 330 0.0 0.0 0.00 0.00 0.00 74 1010.5
20260504024527 40 330 0.0 0.0 0.00 0.00 0.00 73 1010.4
20260504023028 41 330 0.0 0.0 0.00 0.00 0.00 69 1010.6
20260504021528 41 330 0.0 0.0 0.00 0.00 0.00 67 1010.6
20260504020026 43 330 0.0 0.0 0.00 0.00 0.00 64 1010.6
20260504014526 44 330 0.0 0.0 0.00 0.00 0.00 62 1010.4
20260504013025 45 330 0.0 0.0 0.00 0.00 0.00 57 1010.2
20260504011524 47 330 0.0 0.0 0.00 0.00 0.00 52 1010.1
20260504010023 49 330 0.0 0.0 0.00 0.00 0.00 49 1009.9
20260504004524 50 330 0.0 0.0 0.00 0.00 0.00 45 1009.8
20260504003022 51 319 1.0 2.0 0.00 0.00 0.00 42 1009.7
20260504001524 51 322 0.0 3.0 0.00 0.00 0.00 41 1009.3